sat.trackr.live / text

‹ back to catalog

STARLINK-35207

NORAD 65500 · 2025-198J

PAYLOAD ACTIVE UNKNOWN

§ Identity

Operator
Country
US
Launch date
2025-09-05
Launch site
AFETR
Launch vehicle
Mass (kg)
RCS (m²)

Purposes: comms

External: N2YO · Heavens-Above · Gunter

§ Orbital elements

Epoch: 2026-09-20T21:10:33.498624Z

Period
93.85 min
Inclination
53.1589°
Eccentricity
0.0000971
Mean motion
15.34395756 rev/d
Perigee alt
462.1 km
Apogee alt
463.4 km
Semi-major
6,840.9 km
B*
4.6373e-4
RAAN
81.6011°
Arg perigee
106.4554°
Mean anomaly
253.6556°
Rev number
5,854

§ Raw data

STARLINK-352071 65500U 25198J   26263.88233216  .00015322  00000+0  46373-3 0  99912 65500  53.1589  81.6011 0000971 106.4554 253.6556 15.34395756 58540

JSON: /api/v1/satellites/65500 · /tle

For live sub-satellite position, see the globe view (requires WebGL).

§ Visibility from observer

Set your observer location to see the next 7 days of passes ≥ 10°. The values pass through the URL so the page stays shareable.

No JS? Fill the form by hand. The geolocation button needs JavaScript.